Location: Killam
(52.7910°N, 111.8608°W)
Time: 05:43:08
(UTC+00:00)

A-11 Canister half - Pass Details

Date: 17 February 2026
Orbit: 1524 x 1683 km, 47.3° (Epoch: 13 March)

Event Time Altitude Azimuth Distance (km) Brightness Sun altitude
Rises 07:54:09 0° 283° (WNW) 4,686 11.6 -49.1°
Enters shadow 07:55:00 - 280° (W) 4,489 11.5 -49.1°
Reaches altitude 10° 07:59:09 10° 261° (W) 3,715 - -49.0°
Maximum altitude 08:03:23 14° 233° (SW) 3,418 - -48.9°
Drops below altitude 10° 08:07:39 10° 206° (SSW) 3,750 - -48.8°
Sets 08:12:48 0° 183° (S) 4,763 - -48.7°
